QPF
0.00 0.02 0.00 0.00 0.00 0.00 0.00 0.00 0.00 0.00 0.00 0.00 0.00 0.00 0.00 0.00 0.00 0.00 0.00 0.00 0.00 0.00 0.00 0.00 0.00 0.00 0.00 0.00 0.00 0.00 0.00 0.00 0.00 0.00 0.00 0.00 0.00 0.00 0.00 0.00 0.00 0.00 0.00 0.00 0.00 0.00 0.00
0.00 0.01 0.01 0.00 0.00 0.00 0.00 0.00 0.00 0.00 0.00 0.00 0.00 0.00 0.00 0.00 0.00 0.00 0.00 0.00 0.00 0.00 0.00 0.00 0.00 0.00 0.00 0.00 0.00 0.00 0.00 0.00 0.00 0.00 0.00 0.00 0.00 0.00 0.00 0.00 0.00 0.00 0.00 0.00 0.00 0.00 0.00
0.00 0.00 0.01 0.00 0.00 0.01 0.00 0.00 0.00 0.00 0.00 0.00 0.00 0.00 0.00 0.00 0.00 0.00 0.00 0.00 0.00 0.00 0.00 0.00 0.00 0.00 0.00 0.00 0.00 0.00 0.00 0.00 0.00 0.00 0.00 0.00 0.00 0.00 0.00 0.00 0.00 0.00 0.00 0.00 0.00 0.00 0.00
0.00 0.00 0.00 0.01 0.00 0.00 0.00 0.00 0.00 0.00 0.00 0.00 0.00 0.00 0.00 0.00 0.00 0.00 0.00 0.00 0.00 0.00 0.00 0.00 0.00 0.00 0.00 0.00 0.00 0.00 0.00 0.00 0.00 0.00 0.00 0.00 0.00 0.00 0.00 0.00 0.00 0.00 0.00 0.00 0.00 0.00 0.00
0.00 0.00 0.00 0.01 0.01 0.00 0.00 0.01 0.01 0.00 0.00 0.00 0.00 0.00 0.00 0.00 0.00 0.00 0.00 0.00 0.00 0.00 0.00 0.00 0.00 0.00 0.00 0.00 0.00 0.00 0.00 0.00 0.00 0.00 0.00 0.00 0.00 0.00 0.00 0.00 0.00 0.00 0.00 0.00 0.00 0.00 0.00
0.00 0.00 0.00 0.00 0.01 0.01 0.00 0.00 0.01 0.01 0.00 0.00 0.00 0.00 0.00 0.00 0.00 0.00 0.00 0.00 0.00 0.00 0.00 0.00 0.00 0.00 0.00 0.00 0.00 0.00 0.00 0.00 0.00 0.00 0.00 0.00 0.00 0.00 0.00 0.00 0.00 0.00 0.00 0.00 0.00 0.00 0.00
0.00 0.00 0.00 0.00 0.00 0.01 0.00 0.00 0.00 0.01 0.02 0.00 0.00 0.00 0.00 0.00 0.00 0.00 0.00 0.00 0.00 0.00 0.00 0.00 0.00 0.00 0.00 0.00 0.00 0.00 0.00 0.00 0.00 0.00 0.00 0.00 0.00 0.00 0.00 0.00 0.00 0.00 0.00 0.00 0.00 0.00 0.00
0.00 0.00 0.00 0.00 0.00 0.00 0.01 0.00 0.01 0.01 0.03 0.00 0.00 0.00 0.00 0.00 0.00 0.00 0.00 0.00 0.00 0.00 0.00 0.00 0.00 0.00 0.00 0.00 0.00 0.00 0.00 0.00 0.00 0.00 0.00 0.00 0.00 0.00 0.00 0.00 0.00 0.00 0.00 0.00 0.00 0.00 0.00
0.00 0.00 0.00 0.00 0.00 0.01 0.01 0.01 0.01 0.00 0.02 0.02 0.00 0.00 0.00 0.00 0.00 0.00 0.00 0.00 0.00 0.00 0.00 0.00 0.00 0.00 0.00 0.00 0.00 0.00 0.00 0.00 0.00 0.00 0.00 0.00 0.00 0.00 0.00 0.00 0.00 0.00 0.00 0.00 0.00 0.00 0.00
0.01 0.00 0.00 0.00 0.00 0.00 0.01 0.01 0.01 0.00 0.01 0.03 0.01 0.00 0.00 0.01 0.00 0.00 0.00 0.00 0.00 0.00 0.00 0.00 0.00 0.00 0.00 0.00 0.00 0.00 0.00 0.00 0.00 0.00 0.00 0.00 0.00 0.00 0.00 0.00 0.00 0.00 0.00 0.00 0.00 0.00 0.00
0.01 0.02 0.00 0.00 0.00 0.00 0.00 0.01 0.01 0.00 0.00 0.02 0.01 0.00 0.00 0.00 0.00 0.00 0.00 0.00 0.00 0.00 0.00 0.00 0.00 0.00 0.00 0.00 0.00 0.00 0.00 0.00 0.00 0.00 0.00 0.00 0.00 0.00 0.00 0.00 0.00 0.00 0.00 0.00 0.00 0.00 0.00
0.22 0.18 0.11 0.02 0.00 0.00 0.00 0.00 0.01 0.01 0.01 0.01 0.02 0.00 0.00 0.00 0.00 0.00 0.00 0.00 0.00 0.00 0.00 0.00 0.00 0.00 0.00 0.00 0.00 0.00 0.00 0.00 0.00 0.00 0.00 0.00 0.00 0.00 0.00 0.00 0.00 0.00 0.00 0.00 0.00 0.00 0.00
0.15 0.14 0.10 0.05 0.04 0.05 0.01 0.00 0.01 0.02 0.02 0.01 0.01 0.00 0.00 0.00 0.00 0.00 0.00 0.00 0.00 0.00 0.00 0.00 0.00 0.00 0.00 0.00 0.00 0.00 0.00 0.00 0.00 0.00 0.00 0.00 0.00 0.00 0.00 0.00 0.00 0.00 0.00 0.00 0.00 0.00 0.00
0.04 0.07 0.11 0.24 0.29 0.14 0.07 0.03 0.00 0.01 0.02 0.02 0.01 0.01 0.00 0.00 0.00 0.00 0.00 0.00 0.00 0.00 0.00 0.00 0.00 0.00 0.00 0.00 0.00 0.00 0.00 0.00 0.00 0.00 0.00 0.00 0.00 0.00 0.00 0.00 0.00 0.00 0.00 0.00 0.00 0.00 0.00
0.00 0.01 0.04 0.10 0.12 0.15 0.16 0.10 0.02 0.01 0.02 0.02 0.04 0.02 0.01 0.00 0.00 0.00 0.00 0.00 0.00 0.00 0.00 0.00 0.00 0.00 0.00 0.00 0.00 0.00 0.00 0.00 0.00 0.00 0.00 0.00 0.00 0.00 0.00 0.00 0.00 0.00 0.00 0.00 0.00 0.00 0.00
0.00 0.00 0.01 0.02 0.03 0.15 0.32 0.29 0.14 0.04 0.04 0.04 0.02 0.02 0.01 0.00 0.00 0.00 0.00 0.00 0.00 0.00 0.00 0.00 0.00 0.00 0.00 0.00 0.00 0.00 0.00 0.00 0.00 0.00 0.00 0.00 0.00 0.00 0.00 0.00 0.00 0.00 0.00 0.00 0.00 0.00 0.00
0.00 0.00 0.00 0.00 0.02 0.04 0.11 0.18 0.21 0.10 0.06 0.05 0.02 0.05 0.02 0.00 0.00 0.00 0.00 0.00 0.00 0.00 0.00 0.00 0.00 0.00 0.00 0.00 0.00 0.00 0.00 0.00 0.00 0.00 0.00 0.00 0.00 0.00 0.00 0.00 0.00 0.00 0.00 0.00 0.00 0.00 0.00
0.01 0.01 0.01 0.01 0.02 0.07 0.12 0.28 0.30 0.18 0.12 0.09 0.04 0.05 0.02 0.00 0.08 0.04 0.00 0.00 0.00 0.00 0.00 0.00 0.00 0.00 0.00 0.00 0.00 0.00 0.00 0.00 0.00 0.00 0.00 0.00 0.00 0.00 0.00 0.00 0.00 0.00 0.00 0.00 0.00 0.00 0.00
0.00 0.00 0.00 0.00 0.01 0.04 0.14 0.24 0.43 0.43 0.30 0.19 0.07 0.03 0.02 0.05 0.26 0.09 0.00 0.00 0.00 0.00 0.00 0.00 0.00 0.00 0.00 0.00 0.00 0.00 0.00 0.00 0.00 0.00 0.00 0.00 0.00 0.00 0.00 0.00 0.00 0.00 0.00 0.00 0.00 0.00 0.00
0.01 0.00 0.00 0.00 0.01 0.02 0.05 0.23 0.51 0.40 0.31 0.16 0.15 0.17 0.16 0.10 0.08 0.01 0.00 0.00 0.00 0.00 0.00 0.00 0.00 0.00 0.00 0.00 0.00 0.00 0.00 0.00 0.00 0.00 0.00 0.00 0.00 0.00 0.00 0.00 0.00 0.00 0.00 0.00 0.00 0.00 0.00
0.00 0.01 0.00 0.00 0.00 0.01 0.02 0.07 0.35 0.72 0.61 0.26 0.26 0.17 0.08 0.12 0.03 0.00 0.00 0.00 0.00 0.00 0.00 0.00 0.00 0.00 0.00 0.00 0.00 0.00 0.00 0.00 0.00 0.00 0.00 0.00 0.00 0.00 0.00 0.00 0.00 0.00 0.00 0.00 0.00 0.00 0.00
0.02 0.02 0.01 0.00 0.00 0.00 0.01 0.04 0.09 0.52 0.86 0.54 0.29 0.09 0.00 0.00 0.00 0.02 0.01 0.00 0.00 0.00 0.00 0.00 0.00 0.00 0.00 0.00 0.00 0.00 0.00 0.00 0.00 0.00 0.00 0.00 0.00 0.00 0.00 0.00 0.00 0.00 0.00 0.00 0.00 0.00 0.00
0.02 0.01 0.01 0.00 0.00 0.00 0.01 0.03 0.09 0.23 0.84 1.05 0.39 0.04 0.00 0.00 0.01 0.03 0.02 0.00 0.00 0.00 0.00 0.00 0.00 0.02 0.05 0.01 0.00 0.00 0.01 0.01 0.00 0.00 0.00 0.00 0.00 0.00 0.00 0.00 0.00 0.00 0.00 0.00 0.00 0.00 0.00
0.03 0.02 0.01 0.02 0.01 0.00 0.00 0.01 0.09 0.20 0.58 0.87 0.43 0.04 0.00 0.00 0.00 0.01 0.00 0.00 0.00 0.00 0.00 0.00 0.00 0.03 0.03 0.02 0.11 0.08 0.04 0.02 0.01 0.00 0.00 0.00 0.00 0.00 0.00 0.00 0.00 0.00 0.00 0.00 0.00 0.00 0.00
0.03 0.03 0.03 0.02 0.02 0.02 0.01 0.02 0.05 0.16 0.43 0.85 0.41 0.04 0.00 0.00 0.00 0.00 0.00 0.00 0.00 0.00 0.00 0.00 0.01 0.01 0.00 0.05 0.17 0.20 0.14 0.09 0.03 0.00 0.00 0.00 0.00 0.00 0.00 0.00 0.00 0.00 0.00 0.00 0.00 0.00 0.00
0.05 0.05 0.02 0.01 0.02 0.01 0.02 0.02 0.03 0.13 0.37 0.75 0.58 0.10 0.00 0.00 0.00 0.00 0.00 0.00 0.01 0.02 0.01 0.00 0.00 0.00 0.00 0.04 0.07 0.07 0.04 0.02 0.00 0.00 0.00 0.00 0.00 0.01 0.01 0.01 0.00 0.00 0.00 0.00 0.00 0.00 0.00
0.12 0.06 0.04 0.02 0.03 0.02 0.01 0.02 0.03 0.09 0.24 0.52 0.49 0.16 0.03 0.01 0.00 0.00 0.00 0.02 0.00 0.01 0.06 0.04 0.00 0.02 0.02 0.02 0.03 0.01 0.00 0.00 0.00 0.00 0.00 0.00 0.00 0.01 0.01 0.01 0.00 0.00 0.00 0.00 0.00 0.00 0.00
0.19 0.11 0.08 0.02 0.01 0.02 0.02 0.01 0.04 0.10 0.14 0.31 0.38 0.27 0.15 0.04 0.00 0.00 0.00 0.00 0.00 0.02 0.06 0.06 0.07 0.08 0.08 0.07 0.04 0.01 0.00 0.00 0.00 0.00 0.00 0.00 0.01 0.02 0.01 0.03 0.01 0.00 0.00 0.00 0.00 0.00 0.00
0.11 0.11 0.13 0.03 0.00 0.01 0.02 0.01 0.06 0.17 0.11 0.13 0.16 0.22 0.23 0.12 0.15 0.06 0.02 0.01 0.00 0.00 0.00 0.03 0.02 0.01 0.01 0.02 0.01 0.00 0.00 0.00 0.00 0.00 0.00 0.00 0.00 0.00 0.00 0.01 0.00 0.00 0.00 0.00 0.01 0.00 0.00
MSLP
1017.15 1016.98 1017.17 1017.33 1017.39 1017.33 1017.54 1017.64 1017.72 1017.85 1017.91 1018.14 1018.35 1018.60 1018.69 1018.79 1018.93 1019.07 1019.28 1019.31 1019.57 1019.70 1019.75 1019.65 1019.39 1019.09 1018.83 1018.75 1018.38 1017.96 1017.72 1017.63 1017.41 1017.48 1017.38 1017.14 1016.92 1017.26 1018.13 1018.71 1019.21 1019.82 1020.43 1020.56 1020.59 1020.40 1020.41
1017.10 1016.93 1017.00 1017.13 1017.27 1017.26 1017.33 1017.50 1017.58 1017.73 1017.73 1017.93 1018.18 1018.35 1018.67 1018.91 1019.03 1019.02 1019.25 1019.42 1019.41 1019.57 1019.74 1019.66 1019.44 1019.25 1019.22 1018.74 1017.89 1017.89 1017.84 1017.63 1017.60 1017.57 1017.36 1017.21 1017.26 1017.32 1018.55 1019.50 1020.02 1020.59 1020.85 1021.03 1021.00 1020.91 1020.89
1016.80 1016.79 1016.84 1016.90 1017.03 1017.02 1017.13 1017.22 1017.48 1017.51 1017.59 1017.63 1017.90 1018.20 1018.40 1018.66 1018.88 1018.97 1019.14 1019.35 1019.33 1019.59 1019.60 1019.64 1019.51 1019.44 1019.30 1018.39 1017.99 1017.86 1017.76 1017.67 1017.63 1017.59 1017.60 1017.55 1017.54 1017.84 1018.84 1019.91 1020.70 1021.09 1021.51 1021.44 1021.35 1021.22 1021.26
1016.45 1016.44 1016.49 1016.67 1016.81 1016.91 1016.95 1017.07 1017.25 1017.47 1017.55 1017.48 1017.71 1017.89 1018.11 1018.31 1018.60 1018.73 1019.10 1019.29 1019.30 1019.53 1019.54 1019.47 1019.48 1019.65 1018.85 1018.14 1018.17 1017.92 1017.82 1017.62 1017.56 1017.60 1017.72 1017.71 1017.74 1018.38 1019.45 1020.39 1021.08 1021.57 1021.84 1022.17 1021.57 1021.48 1021.53
1015.91 1016.00 1016.10 1016.20 1016.35 1016.54 1016.73 1016.83 1016.98 1017.25 1017.42 1017.50 1017.54 1017.91 1017.94 1018.14 1018.26 1018.63 1018.82 1019.06 1019.35 1019.45 1019.47 1019.39 1019.46 1019.72 1018.83 1018.22 1018.28 1018.35 1018.16 1017.94 1017.69 1017.75 1017.73 1017.78 1018.21 1019.81 1020.45 1021.12 1022.10 1022.29 1022.04 1022.09 1021.74 1021.50 1021.76
1015.55 1015.57 1015.67 1015.74 1015.94 1016.07 1016.26 1016.49 1016.66 1016.84 1017.15 1017.42 1017.61 1017.58 1017.91 1018.06 1017.88 1018.30 1018.82 1019.08 1019.26 1019.48 1019.43 1019.49 1019.32 1019.57 1018.72 1018.45 1018.34 1018.41 1018.37 1018.20 1018.02 1017.96 1018.07 1018.52 1019.72 1020.85 1021.67 1021.63 1021.67 1021.70 1021.85 1021.65 1021.44 1021.47 1021.88
1015.03 1015.08 1015.19 1015.31 1015.40 1015.59 1015.83 1016.13 1016.34 1016.50 1016.71 1017.03 1017.37 1017.58 1017.84 1017.96 1018.06 1018.06 1018.53 1019.32 1020.06 1020.03 1019.46 1018.91 1018.64 1018.55 1018.27 1018.52 1018.44 1018.49 1018.43 1018.34 1018.22 1018.40 1018.93 1019.68 1020.60 1020.79 1020.44 1020.65 1020.29 1020.39 1020.76 1021.05 1021.24 1021.38 1021.72
1014.55 1014.56 1014.58 1014.70 1014.78 1014.91 1015.17 1015.55 1015.87 1016.18 1016.30 1016.61 1017.06 1017.53 1017.60 1018.05 1018.10 1018.19 1018.69 1019.08 1018.65 1018.90 1019.17 1018.64 1018.56 1018.47 1018.13 1018.24 1018.46 1018.59 1018.51 1018.68 1018.64 1019.00 1019.54 1020.49 1020.47 1020.05 1020.21 1020.44 1020.30 1020.36 1020.82 1021.30 1021.61 1021.74 1022.14
1013.16 1013.64 1013.88 1014.02 1014.22 1014.35 1014.55 1014.84 1015.18 1015.52 1015.96 1016.33 1016.72 1017.15 1017.60 1017.75 1018.08 1018.60 1018.77 1018.52 1018.46 1018.56 1018.93 1018.67 1018.33 1018.40 1018.30 1018.30 1018.23 1018.46 1018.54 1018.63 1018.92 1019.35 1019.81 1020.23 1020.30 1019.91 1020.10 1020.52 1020.72 1020.81 1021.06 1021.57 1022.00 1022.38 1022.65
1012.35 1012.54 1012.84 1013.10 1013.40 1013.70 1013.98 1014.19 1014.56 1014.96 1015.23 1015.73 1016.45 1017.04 1017.32 1017.79 1018.71 1018.51 1018.70 1018.25 1018.35 1018.39 1019.20 1018.40 1018.33 1017.65 1018.07 1018.09 1018.70 1018.53 1018.45 1018.42 1018.98 1019.51 1020.29 1020.51 1020.42 1020.39 1020.47 1020.81 1020.98 1021.50 1021.15 1021.75 1022.59 1023.42 1023.65
1011.84 1011.76 1011.58 1011.98 1012.52 1012.90 1013.10 1013.51 1013.84 1014.30 1014.68 1015.26 1015.75 1016.43 1017.11 1017.75 1017.83 1018.16 1017.93 1018.14 1018.49 1018.84 1018.80 1017.90 1018.15 1018.05 1017.82 1018.47 1018.57 1018.76 1018.65 1018.50 1018.91 1019.63 1020.52 1020.88 1021.07 1021.07 1021.33 1021.37 1021.55 1021.95 1022.08 1022.68 1023.49 1024.37 1024.57
1012.47 1012.34 1011.87 1011.31 1011.46 1011.82 1012.28 1012.68 1013.12 1013.66 1014.21 1014.75 1015.42 1016.06 1016.76 1017.45 1017.94 1017.64 1017.55 1018.11 1019.01 1019.58 1017.71 1017.76 1017.91 1018.29 1018.52 1018.64 1018.83 1019.07 1018.85 1018.80 1019.16 1019.96 1020.81 1021.72 1021.96 1021.94 1022.16 1022.64 1022.61 1022.76 1023.25 1024.25 1025.20 1025.81 1025.77
1012.38 1012.34 1011.94 1011.46 1010.55 1011.00 1011.05 1011.68 1012.39 1012.86 1013.62 1014.28 1014.87 1015.62 1016.39 1016.85 1017.54 1017.37 1017.76 1018.57 1019.59 1018.67 1016.36 1017.33 1017.62 1017.93 1018.82 1019.07 1019.38 1019.29 1019.34 1019.27 1019.36 1020.82 1021.57 1022.32 1022.69 1022.79 1022.70 1023.33 1023.61 1023.81 1024.69 1026.28 1027.53 1027.28 1025.60
1012.21 1011.87 1011.76 1011.36 1010.83 1010.54 1010.44 1010.77 1011.35 1012.05 1012.81 1013.68 1014.46 1015.41 1015.83 1016.51 1016.76 1017.50 1018.07 1019.15 1018.06 1015.71 1016.06 1016.42 1016.93 1017.89 1018.42 1019.07 1019.44 1019.56 1019.90 1020.11 1019.52 1019.74 1021.49 1022.30 1023.47 1023.17 1023.18 1023.37 1023.65 1024.78 1024.79 1025.28 1026.46 1027.35 1025.74
1011.99 1011.55 1011.02 1010.83 1010.79 1010.09 1010.09 1009.77 1010.17 1011.04 1012.03 1012.92 1013.95 1015.02 1015.54 1016.02 1016.48 1017.23 1018.14 1018.26 1015.25 1014.72 1014.76 1015.89 1016.97 1017.83 1018.41 1018.65 1018.97 1019.56 1019.91 1019.84 1019.08 1019.29 1019.90 1021.58 1023.02 1023.79 1023.96 1024.18 1024.27 1025.23 1025.16 1024.39 1025.70 1027.19 1026.30
1011.33 1011.12 1010.88 1010.46 1010.01 1009.78 1009.94 1009.88 1009.31 1009.76 1010.98 1012.22 1013.31 1014.12 1014.33 1015.16 1016.23 1016.91 1017.83 1015.67 1014.62 1013.65 1014.17 1014.74 1015.27 1015.97 1017.04 1017.93 1018.82 1019.07 1019.18 1017.83 1017.98 1018.07 1018.85 1020.09 1023.00 1024.55 1024.75 1024.79 1024.88 1024.84 1024.81 1025.01 1025.58 1026.44 1025.97
1010.79 1010.65 1010.35 1010.01 1009.58 1009.26 1009.38 1009.39 1009.06 1008.91 1009.86 1011.12 1012.23 1013.22 1012.94 1014.22 1015.71 1016.59 1015.58 1014.62 1013.88 1013.08 1012.91 1013.73 1014.03 1015.09 1015.87 1016.58 1017.40 1017.96 1017.71 1016.89 1016.72 1017.32 1018.06 1019.69 1021.55 1025.43 1025.46 1025.33 1024.98 1025.64 1025.10 1025.08 1024.83 1024.68 1024.11
1010.14 1010.10 1009.78 1009.33 1009.14 1008.66 1008.65 1008.62 1008.52 1008.15 1008.92 1009.97 1010.50 1011.81 1012.28 1013.32 1014.69 1014.44 1013.94 1014.07 1013.28 1012.49 1012.50 1012.58 1013.03 1013.68 1014.70 1015.55 1016.32 1017.03 1016.51 1015.95 1015.67 1016.43 1017.90 1019.12 1021.64 1024.66 1025.29 1025.60 1025.65 1025.19 1024.52 1023.81 1024.02 1024.16 1023.84
1009.53 1009.35 1009.10 1008.63 1008.37 1008.11 1007.87 1007.74 1007.96 1007.94 1007.70 1007.92 1009.25 1011.11 1011.74 1011.71 1012.36 1012.72 1013.35 1013.43 1013.43 1012.52 1012.02 1012.26 1012.58 1012.98 1013.60 1014.66 1015.67 1015.81 1015.90 1015.78 1015.95 1016.13 1016.63 1018.29 1020.21 1023.72 1025.14 1026.00 1025.98 1025.41 1024.44 1023.62 1022.96 1022.26 1021.70
1008.78 1008.29 1008.02 1007.86 1007.54 1007.35 1007.05 1006.74 1006.71 1007.25 1007.25 1007.13 1008.73 1009.88 1010.92 1010.83 1010.64 1011.68 1012.39 1012.70 1012.94 1012.15 1011.88 1011.83 1011.99 1012.56 1013.38 1014.15 1014.62 1015.58 1016.17 1016.34 1016.33 1016.56 1016.84 1017.33 1018.97 1019.90 1020.78 1021.64 1022.44 1023.98 1023.20 1022.70 1022.15 1021.97 1019.94
1007.92 1007.44 1007.10 1006.71 1006.56 1006.36 1006.10 1005.91 1005.79 1005.90 1006.30 1005.27 1006.78 1007.19 1007.43 1008.72 1008.57 1009.48 1010.73 1011.39 1011.82 1011.57 1011.46 1011.47 1011.95 1012.02 1012.74 1014.03 1014.69 1015.42 1016.29 1016.94 1016.98 1017.22 1017.67 1018.20 1019.22 1019.88 1020.28 1020.65 1021.06 1021.23 1021.12 1021.17 1020.89 1019.60 1019.27
1006.96 1006.37 1006.09 1005.80 1005.48 1005.30 1005.02 1004.78 1004.74 1004.54 1005.02 1004.08 1004.72 1005.81 1006.80 1007.36 1008.52 1009.19 1009.61 1009.74 1010.12 1010.55 1010.31 1010.71 1011.03 1011.76 1012.38 1013.32 1013.35 1014.70 1015.52 1016.30 1016.51 1017.83 1018.37 1019.02 1019.62 1020.02 1020.80 1020.69 1020.79 1020.92 1020.36 1020.28 1019.71 1019.34 1018.51
1005.86 1005.49 1005.03 1004.76 1004.52 1004.28 1004.03 1003.80 1003.68 1003.74 1003.75 1003.15 1003.34 1004.66 1005.02 1006.32 1007.43 1008.19 1007.72 1008.04 1008.73 1009.94 1010.04 1010.00 1010.60 1011.54 1012.42 1012.96 1013.32 1013.93 1014.73 1015.54 1016.18 1017.06 1018.54 1019.20 1019.55 1020.40 1021.13 1020.98 1020.82 1020.46 1018.71 1019.29 1019.00 1018.37 1017.80
1005.21 1004.63 1004.11 1003.74 1003.40 1003.20 1002.99 1002.69 1002.67 1002.62 1002.53 1003.00 1003.31 1003.91 1004.78 1004.92 1005.61 1005.54 1006.71 1007.98 1008.50 1008.80 1009.49 1010.05 1010.48 1010.93 1012.01 1012.70 1013.46 1014.46 1015.14 1015.78 1016.41 1017.02 1017.36 1018.59 1019.24 1019.75 1020.96 1021.10 1020.30 1017.38 1017.11 1016.91 1017.19 1017.24 1017.06
1005.18 1004.26 1003.12 1002.63 1002.30 1002.10 1001.97 1001.75 1001.73 1001.65 1001.27 1001.45 1002.43 1002.49 1002.52 1003.68 1004.41 1005.75 1005.98 1006.52 1008.21 1008.75 1009.37 1009.81 1010.27 1010.46 1011.29 1012.98 1014.51 1015.16 1015.67 1016.22 1016.36 1016.78 1017.31 1017.60 1018.23 1019.26 1019.99 1020.52 1018.46 1017.09 1017.23 1017.41 1017.60 1016.60 1016.05
1004.66 1002.90 1002.01 1001.52 1001.24 1001.09 1000.91 1000.82 1000.54 1000.62 1000.41 1001.04 1001.83 1002.17 1001.24 1002.54 1003.05 1003.88 1005.24 1006.16 1007.42 1008.53 1009.54 1009.57 1010.02 1010.03 1011.11 1012.85 1013.64 1014.13 1014.76 1014.94 1016.02 1016.36 1016.61 1017.26 1017.49 1018.05 1019.17 1019.41 1018.62 1017.08 1015.90 1015.74 1016.72 1016.92 1016.12
1004.08 1002.78 1001.69 1000.62 1000.31 1000.17 999.89 999.86 999.91 1000.22 1000.25 1000.77 1001.31 1001.66 1001.49 1002.22 1003.04 1003.47 1004.42 1005.37 1006.76 1008.14 1009.15 1009.66 1010.03 1010.64 1010.83 1012.02 1013.08 1013.56 1013.88 1013.70 1014.60 1015.33 1016.42 1017.13 1017.58 1017.57 1018.42 1019.28 1018.35 1017.06 1016.97 1017.02 1018.87 1018.97 1018.46
1003.48 1002.43 1001.03 999.78 999.43 999.37 999.16 999.11 999.23 999.41 999.32 999.27 1000.63 1000.57 1000.77 1002.11 1003.33 1003.67 1004.60 1005.65 1006.49 1007.31 1008.21 1009.42 1010.15 1010.27 1010.94 1011.60 1012.48 1012.89 1013.34 1013.26 1013.65 1013.99 1014.50 1015.12 1016.36 1017.18 1018.52 1019.67 1020.10 1019.23 1019.26 1020.21 1021.17 1020.73 1020.49
1003.52 1002.48 1001.47 999.01 998.93 998.84 998.65 998.42 998.64 998.86 998.30 999.29 1000.68 1000.28 1001.06 1002.98 1005.79 1006.12 1006.95 1007.69 1007.42 1006.28 1007.33 1008.45 1007.75 1008.52 1009.05 1010.17 1011.12 1011.84 1013.06 1013.56 1013.31 1014.42 1014.65 1015.02 1014.41 1015.85 1018.04 1019.44 1020.90 1022.35 1023.18 1023.68 1023.06 1022.80 1023.25
Thickness
5593 5594 5593 5592 5593 5594 5592 5592 5590 5591 5593 5594 5594 5596 5599 5598 5598 5597 5599 5603 5606 5608 5611 5616 5623 5630 5636 5641 5647 5654 5659 5664 5669 5672 5676 5681 5685 5682 5674 5675 5677 5671 5668 5671 5673 5675 5678
5588 5590 5590 5589 5589 5590 5591 5590 5590 5588 5589 5590 5592 5593 5594 5597 5598 5599 5597 5598 5601 5604 5607 5611 5617 5623 5629 5637 5645 5649 5655 5659 5662 5666 5671 5675 5678 5680 5668 5664 5668 5663 5660 5664 5667 5671 5672
5585 5585 5585 5585 5585 5586 5586 5587 5586 5587 5588 5588 5586 5588 5591 5592 5595 5596 5596 5597 5598 5598 5603 5608 5611 5616 5621 5634 5640 5645 5649 5653 5657 5660 5664 5668 5671 5674 5665 5658 5654 5655 5655 5659 5662 5667 5668
5580 5581 5581 5580 5580 5580 5581 5581 5582 5581 5582 5586 5585 5583 5584 5588 5590 5591 5591 5592 5594 5595 5598 5603 5607 5610 5616 5627 5632 5638 5643 5647 5651 5654 5657 5661 5664 5660 5657 5651 5650 5649 5645 5642 5658 5660 5662
5575 5576 5576 5576 5576 5575 5575 5576 5576 5576 5576 5578 5581 5579 5580 5580 5584 5585 5587 5588 5588 5591 5593 5597 5601 5602 5612 5622 5624 5627 5633 5639 5643 5646 5650 5654 5653 5642 5645 5633 5619 5627 5617 5644 5652 5652 5654
5570 5571 5570 5571 5570 5570 5570 5570 5571 5571 5570 5571 5572 5576 5575 5575 5578 5578 5577 5580 5583 5585 5589 5591 5595 5597 5606 5616 5618 5621 5623 5629 5634 5637 5640 5639 5622 5597 5594 5596 5611 5631 5632 5643 5649 5648 5647
5562 5564 5565 5565 5565 5565 5564 5563 5564 5565 5565 5565 5565 5566 5568 5570 5571 5572 5575 5571 5565 5570 5580 5586 5594 5598 5605 5606 5610 5614 5617 5621 5625 5627 5620 5622 5596 5604 5631 5631 5646 5637 5640 5642 5641 5641 5643
5555 5557 5558 5559 5560 5560 5559 5557 5557 5557 5559 5559 5558 5557 5560 5559 5561 5564 5565 5561 5570 5576 5570 5579 5587 5590 5597 5598 5601 5603 5608 5611 5614 5611 5611 5597 5592 5624 5626 5625 5636 5637 5632 5633 5630 5633 5633
5555 5552 5552 5552 5551 5552 5552 5553 5552 5552 5550 5550 5550 5551 5549 5551 5552 5553 5554 5559 5561 5566 5562 5570 5575 5578 5584 5588 5595 5592 5597 5602 5603 5601 5603 5597 5615 5619 5621 5616 5619 5624 5620 5619 5629 5620 5623
5549 5549 5547 5546 5546 5546 5546 5546 5544 5543 5544 5544 5540 5538 5540 5539 5537 5541 5546 5550 5552 5556 5533 5562 5560 5571 5572 5580 5580 5583 5588 5597 5597 5593 5590 5600 5597 5606 5609 5609 5603 5598 5618 5613 5605 5599 5595
5537 5535 5539 5539 5538 5539 5540 5538 5537 5535 5534 5532 5534 5532 5528 5526 5531 5532 5535 5539 5540 5540 5509 5553 5546 5559 5565 5567 5571 5573 5579 5587 5584 5586 5583 5586 5588 5597 5601 5603 5600 5603 5604 5602 5602 5590 5585
5513 5515 5523 5531 5532 5531 5530 5529 5527 5525 5524 5523 5521 5519 5517 5518 5518 5521 5526 5524 5522 5518 5489 5527 5534 5538 5548 5558 5560 5560 5568 5574 5574 5574 5563 5559 5561 5567 5573 5563 5573 5579 5574 5564 5546 5540 5541
5486 5492 5498 5505 5516 5516 5519 5518 5516 5516 5512 5510 5509 5506 5504 5505 5501 5508 5508 5502 5488 5478 5543 5523 5527 5535 5536 5537 5542 5548 5549 5547 5548 5548 5554 5553 5550 5551 5558 5562 5563 5543 5556 5512 5529 5505 5570
5458 5464 5469 5478 5488 5498 5503 5504 5503 5501 5499 5495 5492 5487 5490 5489 5490 5488 5485 5474 5477 5524 5528 5523 5525 5522 5531 5528 5529 5533 5531 5524 5546 5542 5519 5542 5543 5538 5547 5550 5560 5529 5547 5546 5549 5514 5560
5430 5440 5447 5455 5462 5473 5480 5486 5489 5487 5483 5481 5474 5471 5473 5475 5474 5471 5460 5447 5512 5518 5527 5514 5518 5513 5517 5523 5520 5524 5517 5511 5534 5538 5550 5531 5550 5517 5521 5521 5536 5532 5524 5551 5513 5462 5511
5410 5415 5422 5433 5443 5456 5460 5468 5477 5479 5472 5467 5461 5460 5468 5463 5458 5455 5442 5486 5494 5518 5508 5512 5525 5515 5508 5509 5509 5506 5507 5526 5543 5542 5524 5544 5509 5499 5505 5512 5514 5518 5524 5538 5504 5527 5533
5387 5393 5401 5409 5418 5431 5442 5453 5460 5466 5466 5458 5451 5449 5465 5455 5443 5434 5452 5465 5493 5509 5513 5508 5518 5502 5511 5509 5514 5507 5518 5538 5543 5536 5543 5512 5498 5475 5494 5490 5501 5505 5505 5492 5516 5515 5532
5366 5370 5378 5390 5399 5412 5423 5434 5449 5453 5455 5446 5444 5440 5451 5442 5429 5437 5462 5461 5492 5502 5508 5510 5516 5518 5499 5506 5504 5508 5520 5528 5534 5530 5523 5519 5473 5452 5474 5458 5464 5473 5507 5516 5533 5502 5469
5346 5351 5358 5368 5379 5391 5403 5415 5428 5435 5441 5440 5438 5429 5431 5436 5430 5443 5451 5464 5467 5487 5494 5496 5502 5512 5510 5496 5486 5504 5504 5513 5515 5522 5524 5508 5467 5438 5458 5453 5451 5451 5466 5479 5478 5491 5507
5327 5333 5340 5347 5359 5371 5384 5399 5410 5417 5430 5430 5413 5415 5408 5413 5443 5447 5446 5445 5455 5473 5485 5490 5495 5498 5495 5496 5497 5478 5488 5491 5499 5508 5518 5512 5471 5500 5536 5511 5483 5470 5477 5489 5516 5515 5531
5310 5314 5319 5329 5339 5352 5367 5381 5395 5407 5413 5422 5405 5409 5424 5423 5448 5452 5448 5448 5451 5458 5471 5479 5477 5487 5482 5464 5484 5476 5465 5459 5472 5484 5473 5482 5489 5478 5477 5484 5486 5480 5484 5498 5507 5537 5541
5293 5297 5301 5308 5319 5332 5349 5365 5380 5396 5407 5411 5399 5404 5406 5419 5440 5433 5436 5448 5457 5463 5463 5466 5466 5475 5474 5464 5482 5462 5451 5447 5475 5451 5449 5437 5463 5451 5466 5460 5471 5482 5477 5486 5511 5521 5485
5287 5286 5288 5292 5299 5312 5329 5349 5367 5383 5393 5399 5401 5406 5421 5420 5419 5421 5438 5458 5457 5455 5463 5471 5470 5456 5450 5461 5466 5467 5463 5457 5456 5452 5443 5441 5443 5441 5451 5427 5457 5479 5487 5469 5474 5473 5521
5286 5283 5282 5283 5287 5294 5310 5332 5351 5368 5381 5383 5389 5398 5398 5407 5418 5435 5445 5438 5441 5449 5448 5453 5453 5452 5454 5447 5445 5442 5440 5436 5438 5436 5449 5418 5422 5417 5413 5418 5434 5501 5458 5493 5504 5494 5499
5282 5282 5284 5283 5283 5286 5296 5313 5333 5354 5375 5383 5384 5395 5400 5408 5425 5418 5432 5439 5430 5432 5432 5430 5435 5449 5447 5424 5419 5420 5422 5426 5429 5429 5425 5428 5435 5424 5429 5392 5443 5482 5464 5469 5475 5499 5499
5283 5288 5288 5286 5284 5286 5292 5301 5321 5342 5363 5370 5376 5387 5403 5413 5413 5433 5424 5425 5412 5407 5406 5417 5422 5429 5424 5408 5411 5415 5417 5421 5416 5422 5426 5421 5421 5435 5411 5435 5422 5459 5469 5460 5474 5500 5482
5283 5286 5288 5291 5288 5288 5293 5300 5313 5329 5349 5359 5369 5377 5391 5401 5405 5419 5415 5417 5412 5402 5392 5394 5399 5402 5410 5398 5397 5400 5413 5424 5415 5411 5417 5407 5406 5421 5432 5420 5427 5449 5444 5453 5456 5483 5440
5285 5287 5291 5293 5291 5292 5297 5304 5313 5327 5344 5359 5365 5377 5387 5389 5392 5402 5412 5410 5406 5402 5393 5383 5384 5383 5388 5392 5393 5391 5386 5406 5420 5420 5420 5429 5420 5420 5419 5419 5435 5397 5439 5461 5415 5414 5419
5287 5286 5285 5293 5291 5296 5302 5310 5321 5330 5346 5350 5353 5369 5374 5372 5351 5359 5362 5366 5381 5410 5401 5383 5400 5389 5395 5386 5382 5375 5367 5355 5390 5412 5397 5417 5431 5430 5427 5428 5357 5351 5350 5349 5369 5382 5375